Погода в Октябрьском

Россия / Республика Башкортостан     54°28′53″N   53°27′56″E
темп.,
°C
ветер,
м/с
пор.,
м/с
влажн.,
%
обл.,
%
осадки,
мм/ч
давл.,
гПа
погр.,
м
25 февраля, чт
чт2523:00−25ссз379746 0.0 1032149
02:00−28ссз2210076 0.0 103219
05:00−29сз119965 0.0 103319
08:00−30з119940 0.0 103319
11:00−24ююз129020 0.0 1033119
14:00−19ююз34840 0.0 1032328
17:00−20ю478937 0.0 1030328
20:00−22ю3991100 0.0 1028294
26 февраля, пт
пт2623:00−21ю41195100 0.1 1026344
02:00−20ю51194100 0.1 1024410
05:00−21ю5119499 0.2 1024414
08:00−21ююв4119499 0.0 1022362
11:00−20ююв5109299 0.1 1022394
14:00−17ююв599098 0.0 1021483
17:00−17ююв5109099 0.0 1019510
20:00−19ююв5139293 0.0 1017372
27 февраля, сб
сб2723:00−16ююв6159194 0.0 1015454
02:00−14ююв81690100 0.0 1009523
05:00−12ююв81793100 2.0 1004600
08:00−10ю71494100 3.8 1000615
11:00−6ю51093100 4.4 999440
14:00−2ю3694100 0.1 999346
17:000ююз479899 0.4 999503
20:00−2ююз389593 0.1 998251
28 февраля, вс
вс2823:00−2ююз369897 0.4 999235
02:00−2ююз3898100 0.6 999329
05:00−2ююз2698100 1.2 999204
08:00−3ююз2398100 0.6 100081
11:00−5ссз3497100 1.3 1002182
14:00−8с3595100 0.2 1003241
17:00−9с479499 0.5 1005323
20:00−12с489597 0.2 1007296
1 марта, пн
пн123:00−15ссз489696 0.3 1010243
02:00−18ссз3798100 0.1 1012150
05:00−21ссз239999 0.1 101463
08:00−22ссз2399100 0.0 101653
11:00−18ссз359799 0.2 1015252
14:00−16ссз3695100 0.0 1017306
17:00−16ссз3594100 0.1 1018315
20:00−19ссз249899 0.0 102071